Location: Unspecified
(44.0704°N, 88.6889°W)
Time: 19:14:37
(UTC+02:00)

Altair - Pass Details

Date: 18 June 2019
Orbit: 1501 x 1683 km, 47.2° (Epoch: 21 July)

Event Time Altitude Azimuth Distance (km) Brightness Sun altitude
Rises 04:23:52 0° 223° (SW) 4,704 10.1 -6.9°
Reaches altitude 10° 04:26:56 10° 219° (SW) 3,745 9.5 -7.3°
Maximum altitude 04:36:10 58° 144° (SE) 1,834 7.6 -8.5°
Drops below altitude 10° 04:45:48 10° 69° (ENE) 3,896 9.4 -9.7°
Sets 04:49:03 0° 66° (ENE) 4,904 10.0 -10.1°
